Location: A�t Lahcen
(32.8243°N, 5.4246°W)
Time: 02:00:19
(UTC+00:00)

Cosmos 1939 Rocket - Pass Details

Date: 27 January 2021
Orbit: 531 x 585 km, 97.4° (Epoch: 27 February)

Event Time Altitude Azimuth Distance (km) Brightness Sun altitude
Rises 06:42:09 0° 19° (NNE) 2,692 6.4 -8.3°
Reaches altitude 10° 06:44:22 10° 27° (NNE) 1,792 5.6 -7.8°
Maximum altitude 06:48:02 42° 99° (E) 769 4.3 -7.1°
Drops below altitude 10° 06:51:40 10° 171° (S) 1,770 5.8 -6.4°
Sets 06:53:50 0° 178° (S) 2,656 6.6 -5.9°
